Back to catalog

FENGYUN 1C DEB

AlivePO
NORAD 30821·DEBRIS·🇨🇳 China

Launched May 10, 1999 from Taiyuan Satellite Launch Center

Loading…

Next Passes (next 24 hours)

TLE

FreshSource: Space-Track

Epoch: Sep 13, 2026, 23:00 UTC

1 30821U 99025AVF 26256.95871168  .00001387  00000-0  34812-3 0  9995
2 30821  99.1347  67.2352 0086063 102.8767  48.3230 14.50927974 27780

Track FENGYUN 1C DEB in real time with AllMySat

Download on the App Store